Location: Krakow
(50.0830°N, 19.9170°E)
Time: 19:31:24
(UTC+01:00)

SR - Pass Details

Date: 11 February 2023
Orbit: 582 x 867 km, 66.7° (Epoch: 20 March)

Event Time Altitude Azimuth Distance (km) Brightness Sun altitude
Rises 12:18:26 0° 205° (SSW) 3,186 ? 25.7°
Reaches altitude 10° 12:20:54 10° 202° (SSW) 2,219 ? 25.6°
Maximum altitude 12:25:52 64° 123° (ESE) 762 ? 25.5°
Drops below altitude 10° 12:30:28 10° 42° (NE) 2,055 ? 25.4°
Sets 12:32:41 0° 39° (NE) 2,931 ? 25.4°
